Weather History for KTQE - June, 2013

Change the Weather History Date:

Thursday, June 13, 2013

  Actual Average Record
Temperature  
Mean Temperature 69 °F -  
Max Temperature 81 °F 85 °F 100 °F (1952)
Min Temperature 57 °F 60 °F 41 °F (1969)
Cooling Degree Days 4    
Growing Degree Days 19 (Base 50)    
Moisture  
Dew Point 55 °F    
Average Humidity 62    
Maximum Humidity 87    
Minimum Humidity 36    
Precipitation  
Precipitation 0.00 in - - ()
Sea Level Pressure  
Sea Level Pressure 30.03 in    
Wind  
Wind Speed 9 mph (NNW)    
Max Wind Speed 15 mph    
Max Gust Speed -    
Visibility 10 miles    
Events      
Averages and records for this station are not official NWS values.
T = Trace of Precipitation, MM = Missing Value Source: NWS Daily Summary

Daily Weather History Graph

Daily Weather History Graph

Search for Another Location

Airport or City:

Trip Planner

Search our weather history database for the weather conditions in past years. The results will help you decide how hot, cold, wet, or windy it might be!

Date:

Astronomy

Jun. 13, 2013 Rise Set
Actual Time 5:49 AM CDT 9:00 PM CDT
Civil Twilight 5:15 AM CDT 9:34 PM CDT
Nautical Twilight 4:31 AM CDT 10:18 PM CDT
Astronomical Twilight 3:38 AM CDT 11:11 PM CDT
Moon 10:30 AM CDT (6/13) No Moon Set
Length of Visible Light 16h 19m
Length of Day
15h 11m
Waxing Crescent, 22% of the Moon is Illuminated
Jun 13
Waxing Crescent
Jun 16
First Quarter
Jun 23
Full
Jun 29
Last Quarter
Jul 8
New

Hourly Weather History & Observations

Time (CDT) Temp. Heat Index Dew Point Humidity Pressure Visibility Wind Dir Wind Speed Gust Speed Precip Events Conditions
12:54 AM 63.0 °F - 53.1 °F 70% 30.01 in 10.0 mi NW 12.7 mph - N/A   Clear
1:54 AM 62.1 °F - 54.0 °F 75% 30.02 in 10.0 mi NW 15.0 mph - N/A   Clear
2:54 AM 62.1 °F - 54.0 °F 75% 30.02 in 10.0 mi NW 13.8 mph - N/A   Clear
3:54 AM 61.0 °F - 54.0 °F 78% 30.02 in 10.0 mi NW 10.4 mph - N/A   Clear
4:54 AM 57.0 °F - 52.0 °F 83% 30.02 in 10.0 mi NNW 6.9 mph - N/A   Clear
5:54 AM 57.0 °F - 53.1 °F 87% 30.06 in 10.0 mi NW 4.6 mph - N/A   Clear
6:54 AM 61.0 °F - 54.0 °F 78% 30.08 in 10.0 mi NNW 9.2 mph - N/A   Clear
7:54 AM 64.9 °F - 55.0 °F 70% 30.08 in 10.0 mi North 13.8 mph - N/A   Clear
8:54 AM 68.0 °F - 55.0 °F 63% 30.09 in 10.0 mi North 9.2 mph - N/A   Clear
9:54 AM 71.1 °F - 55.0 °F 57% 30.09 in 10.0 mi North 8.1 mph - N/A   Clear
10:54 AM 73.9 °F - 54.0 °F 50% 30.07 in 10.0 mi Variable 4.6 mph - N/A   Clear
11:54 AM 78.1 °F - 54.0 °F 43% 30.07 in 10.0 mi ENE 8.1 mph - N/A   Clear
12:54 PM 79.0 °F - 53.1 °F 40% 30.05 in 10.0 mi NNE 8.1 mph - N/A   Clear
1:54 PM 81.0 °F 80.4 °F 53.1 °F 38% 30.04 in 10.0 mi East 5.8 mph - N/A   Clear
2:54 PM 79.0 °F - 50.0 °F 36% 30.06 in 10.0 mi SW 4.6 mph - N/A   Clear
3:54 PM 78.1 °F - 48.9 °F 36% 30.07 in 10.0 mi SW 3.5 mph - N/A   Clear
4:54 PM 75.0 °F - 57.9 °F 55% 30.04 in 10.0 mi NW 3.5 mph - 0.00 in   Scattered Clouds
5:54 PM 75.0 °F - 59.0 °F 57% 30.02 in 10.0 mi Calm Calm - 0.00 in   Partly Cloudy
6:54 PM 77.0 °F - 60.1 °F 56% 29.97 in 10.0 mi NNE 10.4 mph - N/A   Partly Cloudy
7:54 PM 75.0 °F - 57.9 °F 55% 29.95 in 10.0 mi NE 4.6 mph - N/A   Clear
8:54 PM 71.1 °F - 55.9 °F 59% 29.96 in 10.0 mi Calm Calm - N/A   Clear
9:54 PM 66.0 °F - 57.9 °F 75% 29.97 in 10.0 mi NNW 5.8 mph - N/A   Clear
10:54 PM 64.0 °F - 57.9 °F 80% 30.01 in 10.0 mi WNW 3.5 mph - N/A   Clear
11:54 PM 63.0 °F - 57.9 °F 84% 30.01 in 10.0 mi ENE 4.6 mph - N/A   Clear